Weather observations for the past three days for
Jonesboro, Jonesboro Municipal Airport
Imperial (Metric)
Date Time (cdt) Wind (mph) Vis. (mi.) Weather Sky Cond. Temperature (ºF) Relative Humidity Wind Chill (°F) Heat Index (°F) Pressure Precipitation (in)
Air Dwpt 6 hour altimeter (in) sea level (mb) 1 hr 3 hr 6 hr
Max. Min.
09 11:53 Vrbl 5 10.00 Fair CLR 79 52 39% 79 29.87 1011.2
09 10:53 NW 3 10.00 Fair CLR 75.9 54 47% 78 29.86 1011.0
09 09:53 Vrbl 5 10.00 Fair CLR 73.9 55.9 54% 29.86 1010.9
09 08:53 Vrbl 5 10.00 Fair CLR 70 55.9 61% 29.86 1011.0
09 07:53 NW 3 10.00 Fair CLR 66.9 54 63% 29.85 1010.7
09 06:53 NW 6 10.00 Fair CLR 63 54 64 62.1 73% 29.82 1009.7
09 05:53 W 7 10.00 Fair CLR 63 54 73% 29.81 1009.1
09 04:53 W 7 10.00 Fair CLR 62.1 54 75% 29.8 1008.7
09 03:53 W 9 10.00 Fair CLR 63 55.9 78% 29.8 1008.8
09 02:53 SW 8 10.00 Fair CLR 62.1 55.9 80% 29.8 1008.9
09 01:53 SW 7 10.00 Fair CLR 63 55 76% 29.8 1008.8
09 00:53 SW 9 10.00 Fair CLR 64 55 73 63 73% 29.81 1009.3
08 23:53 SW 7 10.00 Fair CLR 64 54 70% 29.82 1009.6
08 22:53 SW 7 10.00 Fair CLR 64 54 70% 29.83 1010.0
08 21:53 W 6 10.00 Fair CLR 66 52 61% 29.85 1010.5
08 20:53 S 5 10.00 Fair CLR 64 51.1 63% 29.83 1009.8
08 19:53 SW 7 10.00 Fair CLR 68 50 53% 29.83 1009.8
08 18:53 SW 14 10.00 Fair CLR 73 50 77 73 44% 29.83 1010.1
08 17:53 SW 12 10.00 Fair CLR 75 50 42% 78 29.83 1010.1
08 16:53 SW 13 G 21 10.00 Fair CLR 77 51.1 40% 78 29.84 1010.2
08 15:53 S 14 G 21 10.00 Fair CLR 77 53.1 43% 78 29.85 1010.7
08 14:53 S 12 G 17 10.00 Fair CLR 77 51.1 40% 78 29.87 1011.3
08 13:53 W 7 10.00 Fair CLR 75 51.1 43% 78 29.89 1012.1
08 12:53 S 8 G 17 10.00 Fair CLR 73.9 50 73.9 52 43% 29.94 1013.7
08 11:53 SW 10 G 20 10.00 Fair CLR 73 50 44% 29.97 1014.6
08 10:53 S 12 10.00 Fair CLR 71.1 48.9 46% 29.99 1015.5
08 09:53 SW 12 10.00 Fair CLR 68 48.9 51% 30.01 1016.1
08 08:53 S 9 10.00 Fair CLR 64.9 50 59% 30.02 1016.4
08 07:53 S 6 10.00 Fair CLR 60.1 51.1 72% 30.02 1016.4
08 06:53 Calm 10.00 Fair CLR 52 48 52 48 86% 30.02 1016.2
08 05:53 Calm 10.00 Fair CLR 48 45 89% 29.99 1015.4
08 04:53 Calm 10.00 Fair CLR 50 46.9 89% 30 1015.5
08 03:53 Calm 10.00 Fair CLR 48.9 45 86% 30 1015.7
08 02:53 Calm 10.00 Fair CLR 51.1 46.9 86% 30 1015.6
08 01:53 NE 3 10.00 Fair CLR 50 46 86% 30.01 1016.1
08 00:53 Calm 10.00 Fair CLR 52 46.9 69.1 52 83% 30.02 1016.5
07 23:53 Calm 10.00 Fair CLR 54 46.9 77% 30.02 1016.4
07 22:53 Calm 10.00 Fair CLR 55.9 46.9 72% 30.02 1016.4
07 21:53 Calm 10.00 Fair CLR 57 45 64% 30.01 1016.1
07 20:53 S 5 10.00 Fair CLR 61 46 58% 30 1015.6
07 19:53 SE 3 10.00 Fair CLR 62.1 48.9 62% 29.99 1015.4
07 18:53 Calm 10.00 Fair CLR 69.1 42.1 71.1 64.9 38% 29.98 1015.1
07 17:53 Calm 10.00 Partly Cloudy SCT060 68 41 38% 29.99 1015.4
07 16:53 Calm 10.00 Fair CLR 70 43 38% 29.99 1015.4
07 15:53 Calm 10.00 Fair CLR 70 41 35% 30 1015.7
07 14:53 NW 9 10.00 Fair CLR 69.1 42.1 38% 30.02 1016.4
07 13:53 NW 7 10.00 Fair CLR 69.1 39.9 35% 30.03 1016.8
07 12:53 Vrbl 3 10.00 Mostly Cloudy BKN055 64.9 41 69.1 51.1 42% 30.05 1017.5
07 11:53 S 6 10.00 Fair CLR 66 42.1 42% 30.07 1018.2
07 10:53 NE 6 10.00 Fair CLR 64 39.9 41% 30.08 1018.4
07 09:53 E 12 10.00 Fair CLR 63 42.1 47% 30.09 1018.7
07 08:53 NE 8 10.00 Fair CLR 60.1 42.1 52% 30.09 1018.7
07 07:53 N 5 10.00 Fair CLR 55.9 45 67% 30.08 1018.5
07 06:53 N 7 10.00 Fair CLR 51.1 44.1 52 50 77% 30.06 1017.7
07 05:53 N 7 10.00 Fair CLR 50 45 83% 48 30.04 1017.1
07 04:53 N 6 10.00 Fair CLR 51.1 46 83% 30.03 1016.9
07 03:53 NW 7 10.00 Fair CLR 51.1 46.9 86% 30.04 1017.0
07 02:53 N 5 10.00 Fair CLR 51.1 46 83% 30.02 1016.5
07 01:53 Calm 10.00 Fair CLR 52 46 80% 30.02 1016.5
07 00:53 N 3 10.00 A Few Clouds FEW085 52 46.9 57.9 52 83% 30.02 1016.6
06 23:53 N 3 10.00 Mostly Cloudy BKN085 53.1 48.9 86% 30.02 1016.6
06 22:53 N 5 10.00 Partly Cloudy FEW085 SCT120 53.1 48.9 86% 30.02 1016.3
06 21:53 N 3 10.00 A Few Clouds FEW120 53.1 48.9 86% 30.01 1016.2
06 20:53 Calm 10.00 Partly Cloudy FEW095 SCT120 55 50 83% 29.99 1015.5
06 19:53 NE 3 10.00 A Few Clouds FEW120 55.9 51.1 84% 29.99 1015.3
06 18:53 Calm 10.00 Partly Cloudy SCT120 57.9 48.9 57.9 55 72% 30 1015.7 0.06
06 17:53 Calm 10.00 Partly Cloudy SCT120 57 48.9 74% 29.98 1015.0
06 16:53 NE 7 10.00 Fair CLR 55 48.9 80% 29.94 1013.8 0.02
06 15:53 NE 5 8.00 Light Rain OVC100 55 48 77% 30 1015.8 0.01 0.04
06 14:53 N 9 9.00 Light Rain OVC100 55.9 48 75% 30.01 1016.1 0.01
06 13:53 NE 5 8.00 Light Rain FEW041 BKN060 OVC095 55.9 46 70% 30.02 1016.3 0.02
06 12:53 NE 10 G 20 10.00 A Few Clouds FEW037 57 43 59 50 60% 29.99 1015.6
Date Time (cdt) Wind (mph) Vis. (mi.) Weather Sky Cond. Air Dwpt Max. Min. Relative Humidity Wind Chill (°F) Heat Index (°F) altimeter (in) sea level (mb) 1 hr 3 hr 6 hr
6 hour
Temperature (ºF) Pressure Precipitation (in)